Theta_e
316 315 315 314 314 314 313 313 313 312 312 312 312 311 310 309 309 309 309 308 308 309 309 309 309 310 310 310 311 310 309 310 310 311 310 310 310 310 310 310 310 310
314 314 313 313 312 312 312 312 311 311 311 311 310 310 309 308 308 308 308 307 307 308 308 308 308 309 309 309 309 309 308 309 309 310 310 309 309 310 310 310 310 310
312 312 312 312 311 311 311 311 310 310 310 310 309 309 308 308 307 307 307 307 307 307 307 308 308 308 308 308 308 308 308 307 308 308 308 309 308 309 309 309 309 308
311 311 311 311 311 311 310 310 310 310 310 309 309 308 307 307 307 306 306 306 306 306 306 307 307 307 307 307 307 307 307 307 307 307 308 308 308 307 307 307 308 307
311 311 311 310 310 310 310 310 310 310 309 308 308 307 307 306 306 305 305 305 305 305 305 305 306 306 306 307 306 306 307 306 306 307 307 307 307 306 306 307 307 306
310 310 310 310 310 310 310 310 309 309 308 307 307 306 306 306 305 305 304 304 304 304 304 304 305 305 306 306 306 306 306 306 306 306 306 306 306 306 306 306 305 305
309 309 309 310 310 309 309 309 308 308 307 307 306 306 305 305 305 305 304 304 304 304 304 304 304 305 305 305 305 305 305 305 305 305 305 305 305 305 305 305 305 304
309 309 309 309 309 309 308 308 307 307 306 306 306 305 305 305 305 305 304 304 303 303 303 303 303 304 304 304 305 305 305 305 305 305 305 305 305 304 304 304 304 303
309 309 309 309 308 308 307 307 306 306 306 305 305 305 304 304 304 304 304 304 303 302 302 302 302 303 303 304 304 304 305 304 304 304 304 304 304 304 303 303 303 302
309 309 309 308 308 307 307 306 306 306 305 305 305 305 304 304 304 304 304 303 303 302 301 301 301 302 302 303 304 304 304 304 304 304 304 304 304 303 303 303 302 302
308 308 308 307 307 307 307 306 306 305 305 305 305 304 304 304 304 303 303 303 302 301 301 300 300 301 301 302 303 304 304 304 304 304 303 303 303 303 303 302 301 301
308 307 307 307 307 307 306 306 306 305 305 304 304 304 304 304 303 303 303 302 301 301 300 299 299 299 300 301 303 304 304 303 303 303 303 303 303 303 302 301 301 300
307 307 307 306 306 306 305 305 305 305 304 304 304 304 304 304 303 303 303 302 301 300 299 299 298 297 297 299 301 303 303 303 303 303 302 302 302 301 301 301 300 300
306 306 306 306 305 305 305 305 305 304 304 304 304 304 304 304 303 303 302 302 300 299 298 298 297 296 295 297 299 301 303 303 303 302 302 302 301 301 301 301 300 299
305 305 304 304 304 304 304 304 304 304 303 303 303 303 303 303 303 302 302 302 300 299 298 297 296 295 295 296 297 299 301 303 302 302 301 301 301 301 300 300 299 299
304 304 304 304 304 304 304 304 304 303 303 303 303 303 303 303 302 302 302 301 300 299 297 296 295 294 295 296 297 298 300 302 302 301 301 300 300 300 300 299 299 299
303 303 303 303 303 303 303 303 303 303 303 303 303 303 303 303 302 302 302 301 300 299 297 296 294 294 295 296 297 298 299 300 302 301 300 300 299 299 299 299 299 298
302 302 302 302 302 302 302 302 302 303 303 304 303 303 303 302 302 302 302 300 299 298 297 295 293 293 295 296 297 298 299 300 301 301 300 300 299 299 299 298 298 298
301 302 302 302 302 302 302 302 302 302 303 303 303 302 302 302 302 302 302 301 299 298 297 295 293 292 294 296 297 297 298 300 300 300 300 300 299 299 299 298 298 297
301 301 301 302 302 301 301 302 302 302 303 303 302 302 302 302 302 302 302 301 300 298 297 295 292 291 293 295 296 297 298 299 300 300 300 299 299 299 298 298 298 297
301 301 301 301 301 301 301 302 302 302 302 302 302 302 301 301 301 301 301 301 300 300 298 295 292 291 292 294 296 297 298 299 300 300 300 299 299 299 298 298 298 297
300 301 301 301 301 301 301 302 302 302 302 301 301 301 301 301 300 300 300 301 301 300 299 296 293 291 292 293 295 297 298 299 299 299 299 299 298 298 298 298 297 297
300 300 300 300 300 300 301 302 302 301 301 301 301 301 300 300 300 299 299 299 300 300 299 297 294 291 291 292 293 296 298 299 298 299 299 299 298 298 298 298 297 296
300 300 300 300 300 300 301 302 301 301 301 301 301 300 300 300 300 300 299 298 298 299 299 298 295 292 291 291 292 294 297 298 297 297 299 299 298 297 298 298 297 296
300 300 300 300 300 300 301 301 301 301 301 300 300 300 300 299 299 300 300 299 298 297 297 298 298 294 291 291 291 292 294 297 297 296 297 298 298 297 297 297 296 295
300 300 300 300 300 300 300 300 301 301 301 300 300 299 299 299 299 299 299 299 299 298 297 297 297 296 292 291 291 291 292 294 296 296 295 297 298 297 296 297 296 295
Wind_Speed
9 9 10 11 11 10 10 10 11 11 11 10 10 11 11 11 10 11 12 12 13 13 13 13 13 13 12 12 12 11 12 12 11 11 12 12 12 12 13 13 14 13
10 10 10 11 11 11 11 11 11 12 11 11 11 11 10 10 11 11 11 12 13 13 13 13 13 13 12 11 11 11 12 12 12 11 11 12 12 12 12 13 14 14
11 11 11 12 12 11 11 12 12 12 12 11 11 10 10 10 10 11 11 11 12 12 13 13 12 12 12 12 11 11 12 13 13 12 11 12 12 12 13 13 13 14
11 12 12 12 12 12 12 12 12 12 12 11 11 10 10 10 10 11 11 11 12 12 12 12 12 12 12 12 11 11 11 12 12 12 11 11 12 12 12 12 13 13
11 12 13 13 13 13 13 13 13 12 12 11 11 10 10 10 10 11 11 11 11 12 12 12 12 12 11 11 12 11 11 12 12 12 11 11 12 12 12 12 13 13
12 13 14 14 14 14 14 14 13 12 12 11 11 10 10 10 11 11 11 12 12 12 12 12 12 12 11 11 12 12 11 12 12 13 12 12 12 12 12 12 13 13
14 14 14 14 14 14 14 13 12 12 11 11 11 10 10 11 11 11 12 12 12 12 12 12 12 12 12 12 11 12 11 12 12 12 12 12 12 12 12 12 13 13
14 14 14 14 14 14 14 13 12 12 11 11 11 11 11 11 11 11 12 12 12 13 13 13 13 12 12 12 12 12 11 11 12 12 12 12 12 13 13 13 13 13
14 14 14 14 14 14 13 13 12 11 11 11 11 10 10 11 11 11 12 12 13 13 13 13 13 12 12 12 12 12 12 11 11 12 12 12 12 13 13 13 13 13
14 14 14 14 14 13 13 12 12 11 11 10 10 10 10 10 11 11 12 12 13 14 14 14 14 13 12 12 12 11 11 11 11 11 11 12 12 12 13 13 13 14
14 14 14 14 14 13 13 12 11 11 11 10 10 10 10 10 10 11 11 13 13 14 15 15 15 14 13 12 11 11 11 11 11 11 11 12 12 12 13 13 13 14
14 14 14 13 13 12 12 11 11 10 10 10 10 10 10 11 11 11 12 13 14 14 15 15 16 16 14 13 12 11 11 11 11 11 11 12 12 13 13 13 13 14
13 13 13 12 12 12 11 11 10 10 10 10 10 10 10 10 11 11 12 13 14 15 15 16 17 17 16 14 12 11 11 11 12 12 12 12 12 12 12 13 13 14
13 12 12 12 11 11 11 11 10 10 10 10 10 10 10 10 11 11 12 13 14 15 15 16 17 18 17 16 14 12 11 11 12 12 12 12 12 12 12 13 14 14
12 12 12 11 11 11 11 10 10 9 10 10 10 10 10 10 11 11 12 13 13 15 15 16 17 18 17 15 15 13 11 11 11 11 12 12 12 12 12 14 14 15
12 12 12 12 11 11 10 10 10 10 10 10 10 10 10 10 10 11 12 12 13 14 15 16 18 18 15 13 13 13 11 10 10 10 11 11 12 12 13 14 15 15
13 12 12 12 11 11 10 10 10 10 10 10 10 10 10 10 10 11 11 12 13 14 15 16 18 17 14 13 12 12 11 10 9 9 10 11 12 12 13 14 15 16
13 13 13 12 11 11 11 10 10 10 10 10 10 9 9 10 10 10 10 11 12 13 14 15 18 16 13 12 12 12 12 10 9 9 9 10 11 12 12 14 15 16
14 13 13 12 12 11 11 11 11 11 10 10 10 10 10 10 10 9 9 10 11 12 13 14 17 17 13 10 10 11 11 10 9 8 9 10 11 11 12 13 13 16
14 14 13 13 12 12 12 12 11 11 10 10 9 9 9 9 10 9 9 9 9 10 12 13 17 17 14 11 9 9 9 9 9 8 8 10 10 11 12 12 12 15
15 14 14 14 13 13 12 12 11 10 10 9 9 9 9 9 9 9 8 8 8 9 10 13 16 17 16 13 10 9 10 9 8 7 8 10 10 11 12 12 13 14
15 15 15 14 14 13 13 12 11 10 10 9 9 9 9 9 9 9 9 8 7 8 9 12 15 17 17 15 12 10 12 12 9 8 9 10 11 13 12 10 13 14
16 16 15 15 14 14 13 12 11 10 9 9 9 9 9 9 9 9 9 9 8 7 8 10 13 16 16 16 15 12 13 14 11 10 10 10 12 14 12 11 14 14
16 16 15 15 14 14 12 11 10 10 9 9 8 9 8 8 8 8 9 9 9 8 8 8 10 15 16 16 16 15 15 14 13 12 11 11 13 14 13 12 13 14
16 16 15 15 14 13 12 11 10 9 9 8 8 8 8 7 7 7 7 8 8 9 9 7 7 12 16 15 15 16 17 14 14 13 12 13 14 14 13 12 13 15
16 15 15 14 14 13 11 10 10 9 8 7 7 7 7 7 7 7 7 6 6 6 8 8 7 9 14 16 15 16 17 16 14 14 14 15 15 14 14 13 14 15
Wind_Direction
96 99 101 101 100 100 99 99 99 95 88 82 77 72 64 56 49 47 46 43 43 41 39 39 38 38 38 35 35 36 34 31 29 28 25 24 23 20 17 14 12 7
95 99 101 102 101 101 100 99 99 96 90 84 80 75 66 58 53 51 50 48 46 42 40 41 40 39 39 37 37 38 36 32 29 27 26 26 23 19 17 15 13 10
95 98 98 99 101 101 100 99 97 95 90 84 80 75 67 61 57 54 53 51 47 43 42 41 40 40 39 39 39 39 37 33 29 26 27 27 22 20 18 14 14 13
94 96 97 96 99 100 99 99 96 92 88 82 78 74 69 65 60 57 53 51 50 46 44 42 41 41 40 40 39 38 37 33 29 27 28 28 24 21 19 15 15 16
97 97 98 97 98 100 99 96 93 89 86 82 79 75 71 67 63 60 56 54 52 48 46 42 41 41 39 40 39 37 36 32 29 27 29 29 26 24 20 15 16 18
99 99 99 100 99 98 97 94 91 89 86 84 81 76 72 68 65 61 58 56 53 49 47 42 40 40 37 37 38 37 34 32 29 29 29 29 25 24 23 18 17 19
101 100 99 98 97 95 94 93 91 90 87 85 82 77 73 69 65 62 58 56 52 48 46 42 40 39 36 35 35 34 33 30 28 27 28 28 24 24 24 20 19 20
102 100 98 97 95 94 93 93 91 91 89 86 82 75 72 69 64 61 58 55 52 47 43 41 39 36 34 34 33 32 32 30 28 27 26 25 24 23 22 20 20 20
106 103 100 98 97 95 94 93 92 91 88 85 82 76 71 67 63 61 58 54 51 47 43 39 36 34 32 32 31 30 30 29 27 26 25 24 23 23 21 20 20 20
106 105 103 100 98 96 95 93 90 89 86 82 80 76 72 68 65 62 59 54 50 46 42 38 33 31 30 30 29 28 27 27 26 25 25 24 22 22 22 21 20 19
107 105 103 101 99 96 94 93 90 88 85 81 80 77 73 69 66 63 59 55 50 46 42 37 32 30 30 28 27 26 26 25 24 23 24 23 22 23 23 22 20 18
109 106 104 101 99 96 94 93 91 89 86 82 80 78 75 72 67 63 60 56 52 47 43 38 33 31 29 25 22 24 26 25 23 24 23 22 22 23 21 20 19 16
110 107 105 102 99 99 97 95 92 89 86 82 79 77 76 74 70 66 62 58 53 48 43 38 34 31 31 27 20 17 22 24 22 22 24 24 22 21 20 17 15 14
110 107 106 103 102 101 97 95 93 88 85 82 78 76 73 71 70 69 66 62 55 49 45 39 33 30 32 32 25 17 17 21 23 22 22 22 19 18 19 17 13 11
112 110 108 107 106 103 99 98 94 90 87 84 78 75 73 71 69 68 68 64 57 51 46 40 33 29 32 35 31 24 17 15 21 22 20 19 17 16 17 16 13 9
116 114 111 110 108 105 104 101 96 93 90 84 81 77 74 73 70 69 69 65 59 54 48 41 33 31 38 44 38 33 23 12 14 19 18 17 15 15 16 14 11 7
119 117 115 113 111 109 108 104 100 97 91 86 84 79 77 75 73 73 71 66 62 57 50 43 34 31 42 48 43 39 30 15 10 14 16 17 15 14 15 14 10 4
123 121 119 117 115 113 111 108 105 101 95 90 86 83 81 78 76 77 76 71 66 59 52 43 33 30 37 41 39 41 36 22 11 12 16 16 14 14 15 14 10 3
127 125 122 120 118 116 114 112 109 104 98 95 91 88 85 81 78 79 78 76 70 62 54 41 29 26 30 34 35 36 36 28 13 11 19 15 10 12 13 12 9 4
129 127 124 122 121 120 118 115 111 107 105 102 99 94 89 84 81 79 77 77 74 64 55 39 28 26 29 32 32 29 32 32 18 12 16 11 8 8 7 8 10 5
130 128 126 125 124 122 120 117 113 112 111 107 104 100 94 88 83 80 78 77 74 69 59 41 29 29 31 32 29 25 27 27 16 11 12 8 6 2 0 9 13 5
132 131 129 127 127 124 121 118 115 115 113 110 108 102 98 93 85 80 78 75 73 71 64 46 30 27 32 33 28 25 26 22 12 8 8 8 7 359 357 9 10 1
134 133 130 129 129 125 122 120 119 119 117 116 114 108 103 99 92 85 77 74 72 67 65 54 32 24 27 31 30 29 26 19 12 9 4 5 9 1 356 4 1 355
135 134 132 130 129 126 124 124 122 121 119 118 116 113 111 106 101 97 86 77 71 62 62 59 36 22 21 25 27 31 32 20 11 10 2 358 6 2 357 1 358 350
135 134 132 130 128 126 126 125 123 123 122 122 121 119 117 113 107 105 99 89 81 69 60 59 43 23 19 21 22 26 32 25 12 11 3 351 357 358 354 358 356 348
135 134 131 130 129 128 128 127 126 128 128 128 127 121 117 113 108 105 104 98 96 86 67 57 52 27 16 21 25 24 28 27 16 10 1 347 344 351 352 350 350 349